Total_Precipitation_Accumulation
0.89 0.86 0.78 0.78 0.73 0.81 0.93 1.03 0.98 0.88 0.84 0.78 0.74 0.82 0.87 0.94 0.97 1.05 1.14 1.15 1.32 1.63 1.86 1.85 1.65 1.44 1.35 1.36 1.42 1.44 1.51 1.64 1.62 1.62 1.66 1.65 1.61 1.50 1.41 1.36 1.25 1.17 1.28
0.94 0.91 0.86 0.87 0.85 0.88 1.01 1.00 0.91 0.97 0.97 0.90 0.77 0.77 0.85 0.92 0.97 0.97 1.02 1.13 1.21 1.31 1.71 1.96 1.93 1.72 1.62 1.53 1.63 1.72 1.71 1.58 1.51 1.57 1.61 1.65 1.67 1.52 1.38 1.27 1.19 1.11 1.11
0.84 0.87 0.88 0.88 0.93 1.02 1.08 1.10 0.93 0.97 0.95 0.86 0.80 0.74 0.74 0.77 0.83 0.89 0.86 0.86 0.94 1.08 1.39 1.77 2.04 1.95 1.84 1.79 1.76 1.80 1.72 1.54 1.50 1.51 1.56 1.53 1.59 1.54 1.42 1.38 1.24 1.24 1.20
0.77 0.90 0.91 0.90 0.93 1.06 1.15 1.20 1.11 1.08 1.02 0.98 0.94 0.86 0.78 0.82 0.79 0.85 0.86 0.80 0.93 0.89 1.08 1.28 1.56 1.77 1.90 1.90 1.84 1.84 1.72 1.45 1.38 1.48 1.52 1.42 1.45 1.47 1.32 1.39 1.28 1.24 1.20
0.84 1.01 1.12 1.13 1.13 1.15 1.15 1.10 1.16 1.16 1.14 1.15 1.06 1.00 0.92 0.87 0.90 0.83 0.86 0.90 0.85 0.87 0.97 0.89 0.98 1.17 1.51 1.73 1.85 2.06 1.98 1.57 1.36 1.44 1.54 1.38 1.34 1.43 1.27 1.28 1.26 1.17 1.12
1.19 1.33 1.33 1.41 1.48 1.37 1.33 1.28 1.30 1.25 1.19 1.24 1.12 1.02 0.94 0.86 0.94 0.97 0.95 0.97 0.92 0.85 0.94 0.90 0.89 0.83 1.03 1.32 1.62 1.99 2.22 1.85 1.55 1.49 1.60 1.49 1.38 1.46 1.30 1.27 1.31 1.14 1.07
1.52 1.73 1.70 1.75 1.79 1.68 1.64 1.68 1.88 1.84 1.57 1.33 1.37 1.21 1.01 0.86 0.99 1.03 1.01 1.04 1.05 1.11 1.15 1.03 0.92 0.92 0.82 0.83 1.03 1.50 2.14 2.05 1.81 1.65 1.67 1.61 1.40 1.33 1.19 1.19 1.30 1.20 1.04
1.44 1.58 1.83 1.93 1.87 1.91 2.03 2.04 2.38 2.53 2.09 1.66 1.65 1.77 1.50 1.29 1.04 0.91 0.97 1.00 1.10 1.30 1.29 1.07 0.98 0.91 0.85 0.86 0.66 0.92 1.53 1.86 1.88 1.81 1.70 1.58 1.43 1.27 1.23 1.30 1.28 1.32 1.20
1.41 1.51 1.67 1.83 1.84 1.92 2.01 2.14 2.47 2.95 2.71 2.17 1.91 2.11 1.82 1.61 1.42 1.08 0.94 0.98 1.09 1.32 1.46 1.33 1.22 1.14 0.98 0.98 0.86 0.74 0.94 1.24 1.75 1.98 1.92 1.73 1.62 1.41 1.34 1.46 1.28 1.39 1.43
1.31 1.37 1.52 1.66 1.78 1.81 1.94 2.04 2.16 2.64 2.98 2.67 2.37 2.01 1.67 1.60 1.71 1.52 1.19 1.13 1.17 1.24 1.33 1.29 1.27 1.35 1.23 1.11 0.98 0.79 0.78 0.87 1.41 1.81 2.01 1.99 1.86 1.68 1.67 1.85 1.60 1.47 1.46
1.40 1.39 1.54 1.62 1.64 1.69 1.79 2.12 2.38 2.64 2.84 2.79 2.69 2.50 2.23 1.94 1.61 1.73 1.67 1.44 1.32 1.23 1.24 1.28 1.29 1.36 1.38 1.30 1.32 1.01 0.80 0.79 1.04 1.47 1.91 2.21 2.17 2.06 2.18 2.28 1.90 1.70 1.60
1.50 1.54 1.60 1.61 1.59 1.62 1.73 1.95 2.23 2.44 2.75 2.92 2.81 2.59 2.45 2.32 2.10 1.96 1.74 1.63 1.60 1.40 1.31 1.30 1.24 1.28 1.40 1.53 1.45 1.39 0.98 0.74 0.77 1.11 1.45 1.84 2.13 2.24 2.42 2.44 2.18 2.11 1.93
1.39 1.42 1.53 1.66 1.74 1.77 1.89 2.06 2.20 2.10 2.32 2.70 2.68 2.53 2.44 2.23 2.19 2.24 2.07 1.77 1.65 1.38 1.29 1.24 1.20 1.32 1.32 1.35 1.54 1.70 1.20 0.87 0.72 0.95 1.13 1.29 1.56 1.91 2.33 2.58 2.55 2.50 2.38
1.35 1.29 1.34 1.45 1.59 1.76 1.81 1.85 1.87 1.84 1.97 2.22 2.30 2.46 2.57 2.33 2.18 2.05 1.97 2.01 1.78 1.51 1.36 1.24 1.15 1.18 1.23 1.27 1.47 1.64 1.25 1.04 0.79 0.75 0.85 1.05 1.15 1.27 1.61 2.04 2.42 2.50 2.58
1.12 1.04 1.05 1.09 1.17 1.26 1.34 1.49 1.58 1.70 1.74 1.86 2.02 2.14 2.28 2.38 2.29 2.06 1.97 1.95 1.92 1.73 1.52 1.41 1.26 1.08 1.20 1.32 1.51 1.34 1.21 1.19 1.01 0.82 0.76 0.82 0.93 0.97 1.10 1.22 1.42 1.73 2.11
1.03 0.96 0.93 0.88 0.85 0.84 0.89 1.07 1.27 1.40 1.49 1.65 1.84 1.96 1.97 2.03 2.22 2.18 1.99 1.96 1.89 1.77 1.64 1.45 1.34 1.21 1.39 1.31 1.44 1.29 1.29 1.35 1.06 0.93 0.85 0.81 0.81 0.75 0.73 0.76 0.77 0.90 1.19
1.01 1.00 0.92 0.85 0.92 0.92 0.89 0.96 1.02 1.08 1.15 1.30 1.44 1.57 1.72 1.97 2.27 2.28 2.22 2.09 1.97 1.83 1.61 1.45 1.25 1.17 1.49 1.59 1.50 1.38 1.34 1.31 1.07 0.97 0.89 0.82 0.79 0.73 0.68 0.61 0.61 0.64 0.72
0.69 0.78 0.87 0.82 0.80 0.83 0.86 0.93 0.95 0.99 1.02 1.11 1.21 1.34 1.52 1.81 2.15 2.35 2.42 2.31 2.15 2.00 1.86 1.70 1.38 1.13 1.25 1.60 1.74 1.68 1.45 1.29 1.15 1.07 0.94 0.84 0.79 0.72 0.66 0.64 0.62 0.62 0.62
0.52 0.57 0.66 0.67 0.76 0.84 0.86 0.88 0.90 0.94 0.96 1.05 1.19 1.25 1.30 1.50 1.69 1.90 2.08 2.20 2.18 2.16 2.13 1.90 1.59 1.33 1.26 1.39 1.65 1.67 1.59 1.55 1.32 1.24 1.24 1.11 0.98 0.87 0.77 0.67 0.66 0.64 0.60
0.55 0.61 0.73 0.78 0.73 0.71 0.76 0.86 0.90 0.86 0.85 0.89 0.97 1.07 1.17 1.21 1.37 1.51 1.62 1.80 2.02 2.25 2.33 2.19 1.92 1.60 1.47 1.36 1.47 1.63 1.70 1.65 1.57 1.37 1.32 1.22 1.19 1.13 1.01 0.85 0.71 0.65 0.65
0.61 0.63 0.73 0.84 0.90 0.85 0.82 0.91 0.88 0.86 0.85 0.84 0.89 0.90 0.96 0.98 1.04 1.23 1.27 1.49 1.81 2.08 2.20 2.27 2.14 1.84 1.58 1.40 1.19 1.29 1.55 1.78 1.79 1.71 1.70 1.45 1.30 1.16 1.08 1.03 0.96 0.84 0.74
0.51 0.50 0.54 0.61 0.70 0.74 0.94 0.90 0.75 0.71 0.77 0.83 0.88 0.87 0.89 0.84 0.82 0.89 1.02 1.15 1.45 1.66 1.80 1.87 1.90 1.74 1.53 1.40 1.35 1.31 1.38 1.53 1.59 1.49 1.54 1.60 1.52 1.37 1.26 1.14 1.16 1.19 1.11
0.43 0.41 0.40 0.40 0.46 0.61 0.69 0.54 0.53 0.59 0.72 0.84 0.91 0.94 0.90 0.84 0.89 0.90 0.91 0.93 1.00 1.18 1.39 1.59 1.62 1.52 1.57 1.49 1.41 1.31 1.32 1.34 1.33 1.43 1.51 1.57 1.54 1.43 1.35 1.34 1.37 1.28 1.22
0.35 0.34 0.40 0.46 0.47 0.49 0.56 0.46 0.46 0.55 0.75 0.88 0.88 0.84 0.91 0.92 0.94 1.00 0.94 1.01 0.97 0.95 1.03 1.08 1.22 1.42 1.57 1.73 1.71 1.60 1.61 1.55 1.46 1.55 1.57 1.52 1.42 1.33 1.24 1.22 1.28 1.16 1.08
0.40 0.41 0.51 0.57 0.51 0.44 0.50 0.50 0.55 0.69 0.82 0.90 0.87 0.86 0.94 0.98 1.11 1.16 1.07 1.12 1.08 1.04 1.01 1.12 1.21 1.32 1.40 1.52 1.67 1.71 1.67 1.63 1.50 1.43 1.43 1.38 1.28 1.29 1.27 1.15 1.09 1.08 0.99
0.34 0.41 0.43 0.40 0.41 0.47 0.54 0.52 0.64 0.82 0.94 1.04 1.00 0.99 1.18 1.13 1.11 1.06 1.03 1.18 1.15 1.01 0.94 0.98 1.03 1.11 1.15 1.24 1.36 1.41 1.54 1.61 1.52 1.37 1.20 1.18 1.19 1.22 1.26 1.16 1.04 0.97 0.93